#timestamp,LO_Frequency,Hit,StdDev 
1614891615.2,286047007.5,Y
1614891635.1,286047012.4,P
1614891636.0,286047012.4,N
1614891655.8,286047012.6,N
1614891675.6,286047013.6,N
1614891695.5,286047009.5,N
1614891715.3,286047010.2,N
1614891735.2,286047007.8,N
1614891755.9,286047009.7,N
1614891775.7,286047009.6,N
1614891795.6,286047009.3,N
1614891815.4,286047011.9,Y
1614891835.2,286047000.2,P
1614891855.1,286047001.9,N
1614891856.0,286047001.9,N
1614891875.8,286046999.9,N
1614891895.7,286047002.5,N
1614891915.5,286047000.3,N
1614891935.3,286047000.8,N
1614891955.2,286047000.3,N
1614891975.9,286047002.5,N
1614891995.7,286047001.4,N
1614892015.6,286046999.9,N
1614892035.4,286047000.4,N
1614892055.3,286047004.1,N
1614892075.1,286047004.0,N
1614892076.0,286047004.0,N
1614892095.8,286047002.4,N
1614892115.7,286046999.9,N
1614892135.5,286047000.0,N
1614892155.3,286047002.8,N
1614892175.2,286047002.7,N
1614892195.0,286047002.3,N
1614892195.9,286047002.3,N
1614892215.8,286047000.0,N
1614892235.6,286047000.1,N
1614892255.4,286046998.8,N
1614892275.3,286047000.5,N
1614892295.1,286047000.0,N
1614892315.8,286046998.5,N
1614892335.7,286046999.5,N
1614892355.5,286046997.3,N
1614892375.3,286046999.2,N
1614892395.2,286046997.1,N
1614892415.0,286046997.1,N
1614892415.9,286046997.1,N
1614892435.8,286046996.5,N
1614892455.6,286046999.6,N
1614892475.4,286047000.7,N
1614892495.3,286046998.6,N
1614892515.1,286046998.7,N
1614892535.8,286046999.3,N
1614892555.7,286046999.0,N
1614892575.5,286046999.6,N
1614892595.4,286046998.1,N
1614892615.2,286046999.5,N
1614892635.0,286046994.9,N
1614892635.9,286046994.9,N
1614892655.8,286046999.1,N
1614892675.6,286047001.0,N
1614892695.4,286046999.8,N
1614892715.3,286047000.8,N
1614892735.1,286047000.4,N
1614892755.9,286046997.7,N
1614892775.7,286046995.6,N
1614892795.5,286046995.0,Y
1614892815.4,286046999.6,P
1614892835.2,286046997.6,P
1614892855.0,286046999.5,N
1614892855.9,286046999.5,N
1614892875.8,286047000.2,N
1614892895.6,286047002.5,N
1614892915.5,286047002.8,N
1614892935.3,286047000.5,N
1614892955.1,286046999.8,N
1614892975.9,286046999.9,N
1614892995.7,286046997.0,N
1614893015.5,286046999.2,N
1614893035.4,286046997.5,N
1614893055.2,286046995.5,N
1614893075.1,286046994.9,N
1614893076.0,286046994.9,N
1614893095.8,286046997.8,N
1614893115.6,286046995.6,N
1614893135.5,286046996.1,N
1614893155.3,286046995.6,N
1614893175.1,286046993.0,Y
1614893195.9,286046991.8,P
1614893215.7,286046992.4,N
1614893235.6,286046991.9,N
1614893255.4,286046994.2,N
1614893275.2,286046994.1,N
1614893295.1,286046996.3,N
1614893296.0,286046996.3,N
1614893315.8,286046995.9,N
1614893335.7,286046992.6,Y
1614893355.5,286046995.0,P
1614893375.3,286046995.5,P
1614893395.2,286046998.4,P
1614893415.9,286047000.0,N
1614893435.7,286047000.8,N
1614893455.6,286047000.4,N
1614893475.4,286047000.2,N
1614893495.3,286046999.4,N
1614893515.1,286046999.6,N
1614893516.0,286046999.6,N
1614893535.8,286046999.2,N
1614893555.7,286047001.0,N
1614893575.5,286047000.9,N
1614893595.3,286047002.1,N
1614893615.2,286046998.4,N
1614893635.0,286046997.1,N
1614893635.9,286046997.1,N
1614893655.8,286046999.5,N
1614893675.6,286047001.1,N
1614893695.4,286046998.9,N
1614893715.3,286046999.6,N
1614893735.1,286046998.3,N
1614893755.8,286047000.4,N
1614893775.7,286047003.2,N
1614893795.5,286047004.1,N
1614893815.3,286047003.1,N
1614893835.2,286047003.5,N
1614893855.0,286047001.6,N
1614893855.9,286047001.6,N
1614893875.8,286047001.8,N
1614893895.6,286047001.3,N
1614893915.4,286047004.6,N
1614893935.3,286047003.9,N
1614893955.1,286047002.1,N
1614893975.8,286047004.1,N
1614893995.7,286046999.9,N
1614894015.5,286046999.8,N
1614894035.4,286047003.4,N
1614894055.2,286047005.8,N
1614894075.0,286047005.9,N
1614894075.9,286047005.9,N
1614894095.8,286047005.2,N
1614894115.6,286047002.3,N
1614894135.4,286046999.8,N
1614894155.3,286047004.3,N
1614894175.1,286047005.6,N
1614894195.9,286047004.4,N
1614894215.7,286047003.9,N
1614894235.5,286047001.4,N
1614894255.4,286047004.0,N
1614894275.2,286047002.7,N
1614894295.0,286047000.8,N
1614894296.0,286047000.8,N
1614894315.8,286047000.4,N
1614894335.6,286046999.8,N
1614894355.5,286046999.9,N
1614894375.3,286047000.2,N
1614894395.1,286047000.5,N
1614894415.9,286046999.9,N
1614894435.7,286047004.0,N
1614894455.5,286047003.2,N
1614894475.4,286047004.0,N
1614894495.2,286047004.4,N
1614894515.1,286047003.0,N
1614894516.0,286047003.0,N
1614894535.8,286047006.0,N
1614894555.6,286047003.7,N
1614894575.5,286046999.9,N
1614894595.3,286047004.3,N
1614894615.2,286047002.3,N
1614894635.9,286047000.2,N
1614894655.7,286047002.8,N
1614894675.6,286047002.3,N
1614894695.4,286047004.0,N
1614894715.2,286047003.5,N
1614894735.1,286047007.3,Y
1614894736.0,286047007.3,P
1614894755.8,286047001.7,N
1614894775.7,286047000.1,N
1614894795.5,286046998.3,N
1614894815.3,286046998.6,N
1614894835.2,286046999.0,N
1614894855.0,286046999.9,N
1614894855.9,286046999.9,N
1614894875.8,286047002.7,N
1614894895.6,286046998.9,N
1614894915.4,286046999.8,N
1614894935.3,286047001.0,N
1614894955.1,286047002.7,N
1614894975.8,286047004.4,N
1614894995.7,286047002.2,N
1614895015.5,286047002.5,N
1614895035.4,286047002.3,N
1614895055.2,286047001.1,N
1614895075.0,286046998.8,N
1614895075.9,286046998.8,N
1614895095.8,286047001.1,N
1614895115.6,286046997.6,N
1614895135.4,286046999.2,N
1614895155.3,286046999.3,N
1614895175.1,286047003.8,N
1614895195.9,286047003.1,N
